sat.trackr.live / text

‹ back to catalog

STARLINK-11732 [DTC]

NORAD 64370 · 2025-127A

PAYLOAD ACTIVE UNKNOWN

§ Identity

Operator
Country
US
Launch date
2025-06-13
Launch site
AFETR
Launch vehicle
Mass (kg)
RCS (m²)

Purposes: comms

External: N2YO · Heavens-Above · Gunter

§ Orbital elements

Epoch: 2026-09-20T12:30:13.122144Z

Period
91.67 min
Inclination
42.9998°
Eccentricity
0.0002681
Mean motion
15.70918044 rev/d
Perigee alt
354.5 km
Apogee alt
358.1 km
Semi-major
6,734.4 km
B*
1.4528e-3
RAAN
350.2166°
Arg perigee
260.3734°
Mean anomaly
99.6831°
Rev number
7,414

§ Raw data

STARLINK-11732 [DTC]1 64370U 25127A   26263.52098521  .00190945  00000+0  14528-2 0  99972 64370  42.9998 350.2166 0002681 260.3734  99.6831 15.70918044 74149

JSON: /api/v1/satellites/64370 · /tle

For live sub-satellite position, see the globe view (requires WebGL).

§ Visibility from observer

Set your observer location to see the next 7 days of passes ≥ 10°. The values pass through the URL so the page stays shareable.

No JS? Fill the form by hand. The geolocation button needs JavaScript.